Flag Weather past 2 weeks in São Luis, Maranhão, Brazil

Now
82 °F

Scattered clouds.


Feels Like: 87 °F
Forecast: N/A
Wind: 15 mph from Northeast

Location: Sao Luiz Aeroporto

Current Time: Nov 25, 2014 at 6:19:03 PM

Latest Report: Nov 25, 2014 at 6:00 PM


Visibility: N/A

Pressure: 29.77 "Hg

Humidity: 70%

Dew point: 72 °F

Location of São LuisLocation

Historic Weather in São Luis — Graph

°F

São Luis temperature yesterday

Maximum temperature yesterday: 90 °F (at 12:00 PM)
Minimum temperature yesterday: 77 °F (at 3:00 AM)
Average temperature yesterday: 83 °F

Past Weeks' High & Low Weather Summary

 TemperatureHumidityPressure
High90 °F (Nov 14, 12:00 PM)79% (Nov 11, 12:00 AM)30.33 "Hg (Nov 11, 12:00 AM)
Low77 °F (Nov 14, 3:00 AM)43% (Nov 24, 12:00 PM)26.21 "Hg (Nov 14, 1:00 AM)
Average83 °F66%29.83 "Hg
* Reported Nov 10 5:00 PM — Nov 25 5:00 PM, São Luis, Weather by CustomWeather, © 2014

Note: Actual official high and low records may vary slightly from our data, if they occured in-between our weather recording intervals... More about our weather records

Advertising

São Luis weather history for previous 24 hours

 ConditionsComfort  
Time TempWeatherWind HumidityBarometerVisibility
5:00 PM
Nov 25
86 °FScattered clouds.25 mph59%29.77 "HgN/A
4:00 PM88 °FScattered clouds.20 mph59%29.74 "HgN/A
3:00 PM88 °FScattered clouds.17 mph59%29.77 "HgN/A
2:00 PM90 °FScattered clouds.16 mph55%29.77 "HgN/A
1:00 PM90 °FScattered clouds.15 mph52%29.80 "HgN/A
12:00 PM90 °FScattered clouds.14 mph52%29.83 "HgN/A
11:00 AM88 °FScattered clouds.15 mph52%29.86 "HgN/A
10:00 AM86 °FScattered clouds.16 mph55%29.86 "HgN/A
9:00 AM86 °FScattered clouds.17 mph55%29.86 "HgN/A
8:00 AM82 °FScattered clouds.15 mph66%29.86 "HgN/A
7:00 AM81 °FPassing clouds.10 mph70%29.86 "HgN/A
6:00 AM79 °FPassing clouds.6 mph74%29.83 "HgN/A
5:00 AM79 °FPassing clouds.5 mph74%29.83 "HgN/A
4:00 AM79 °FPassing clouds.6 mph74%29.83 "HgN/A
3:00 AM79 °FPassing clouds.6 mph74%29.83 "HgN/A
2:00 AM81 °FPassing clouds.9 mph70%29.83 "HgN/A
1:00 AM81 °FPassing clouds.10 mph70%29.83 "HgN/A
12:00 AM81 °FPassing clouds.9 mph70%29.86 "HgN/A
11:00 PM
Nov 24
81 °FPassing clouds.10 mph74%29.86 "HgN/A
10:00 PM81 °FPassing clouds.10 mph74%29.89 "HgN/A
9:00 PM81 °FClear.10 mph74%29.86 "Hg10 mi
8:00 PM81 °FClear.12 mph74%29.86 "Hg10 mi
7:00 PM81 °FClear.15 mph70%29.83 "Hg10 mi
6:00 PM82 °FPassing clouds.16 mph66%29.83 "HgN/A
Weather by CustomWeather, © 2014

See weather overviewHow to use our weather pages